| time (UTC) | temp F | wind direction | speed MPH | gust MPH | rain 1hr in | rain 24hr in | rain mn in | humidity % | barometer mb |
| 20260903033028 | 71 | 40 | 1.0 | 1.0 | 0.00 | 0.02 | 0.02 | 98 | 1013.5 |
| 20260903032523 | 71 | 111 | 0.0 | 1.0 | 0.00 | 0.02 | 0.02 | 98 | 1013.4 |
| 20260903032019 | 71 | 296 | 0.0 | 2.0 | 0.00 | 0.02 | 0.02 | 98 | 1013.6 |
| 20260903031513 | 71 | 32 | 0.0 | 2.0 | 0.00 | 0.02 | 0.02 | 98 | 1013.5 |
| 20260903031008 | 72 | 323 | 0.0 | 3.0 | 0.00 | 0.02 | 0.02 | 98 | 1013.4 |
| 20260903030504 | 71 | 336 | 0.0 | 2.0 | 0.00 | 0.02 | 0.02 | 98 | 1013.4 |
| 20260903025959 | 71 | 355 | 0.0 | 1.0 | 0.00 | 0.02 | 0.02 | 98 | 1013.2 |
| 20260903025454 | 71 | 223 | 0.0 | 2.0 | 0.00 | 0.02 | 0.02 | 98 | 1013.0 |
| 20260903024950 | 71 | 299 | 0.0 | 2.0 | 0.00 | 0.02 | 0.02 | 98 | 1013.4 |
| 20260903024448 | 71 | 357 | 0.0 | 1.0 | 0.00 | 0.02 | 0.02 | 98 | 1013.3 |
| 20260903023943 | 71 | 323 | 0.0 | 1.0 | 0.00 | 0.02 | 0.02 | 98 | 1013.4 |
| 20260903023440 | 71 | 29 | 0.0 | 1.0 | 0.00 | 0.02 | 0.02 | 98 | 1013.5 |
| 20260903022935 | 72 | 329 | 0.0 | 2.0 | 0.00 | 0.02 | 0.02 | 98 | 1013.3 |
| 20260903022434 | 71 | 285 | 2.0 | 2.0 | 0.00 | 0.02 | 0.02 | 98 | 1013.4 |
| 20260903021932 | 71 | 251 | 0.0 | 2.0 | 0.00 | 0.02 | 0.02 | 98 | 1013.5 |
| 20260903021428 | 71 | 229 | 0.0 | 2.0 | 0.00 | 0.02 | 0.02 | 98 | 1013.8 |
| 20260903020923 | 71 | 116 | 0.0 | 1.0 | 0.00 | 0.02 | 0.02 | 98 | 1013.8 |
| 20260903020418 | 72 | 241 | 1.0 | 2.0 | 0.00 | 0.02 | 0.02 | 98 | 1013.9 |
| 20260903015913 | 72 | 293 | 0.0 | 1.0 | 0.00 | 0.02 | 0.02 | 97 | 1014.0 |
| 20260903015409 | 72 | 343 | 0.0 | 1.0 | 0.00 | 0.02 | 0.02 | 97 | 1013.9 |
| 20260903014903 | 72 | 16 | 0.0 | 2.0 | 0.00 | 0.02 | 0.02 | 97 | 1013.9 |
| 20260903014357 | 72 | 285 | 1.0 | 1.0 | 0.00 | 0.02 | 0.02 | 97 | 1014.1 |
| 20260903013853 | 72 | 283 | 0.0 | 1.0 | 0.00 | 0.02 | 0.02 | 97 | 1014.1 |
| 20260903013351 | 72 | 208 | 0.0 | 2.0 | 0.00 | 0.02 | 0.02 | 97 | 1014.0 |
| 20260903012851 | 72 | 293 | 2.0 | 3.0 | 0.00 | 0.02 | 0.02 | 98 | 1014.0 |
| 20260903012345 | 72 | 89 | 0.0 | 1.0 | 0.00 | 0.02 | 0.02 | 98 | 1013.9 |
| 20260903011839 | 72 | 304 | 0.0 | 3.0 | 0.00 | 0.02 | 0.02 | 98 | 1013.9 |
| 20260903011339 | 72 | 0 | 1.0 | 2.0 | 0.00 | 0.02 | 0.02 | 98 | 1013.9 |
| 20260903010834 | 72 | 321 | 0.0 | 1.0 | 0.00 | 0.02 | 0.02 | 98 | 1013.8 |
| 20260903010329 | 72 | 81 | 0.0 | 1.0 | 0.00 | 0.02 | 0.02 | 98 | 1013.8 |
| 20260903005827 | 72 | 242 | 0.0 | 1.0 | 0.00 | 0.02 | 0.02 | 98 | 1013.6 |
| 20260903005323 | 72 | 185 | 0.0 | 1.0 | 0.00 | 0.02 | 0.02 | 98 | 1013.8 |
| 20260903004819 | 72 | 339 | 0.0 | 1.0 | 0.00 | 0.02 | 0.02 | 97 | 1013.9 |
| 20260903004314 | 72 | 309 | 0.0 | 1.0 | 0.00 | 0.02 | 0.02 | 97 | 1013.6 |
| 20260903003810 | 72 | 353 | 1.0 | 1.0 | 0.00 | 0.02 | 0.02 | 97 | 1013.8 |
| 20260903003304 | 72 | 202 | 0.0 | 1.0 | 0.00 | 0.02 | 0.02 | 97 | 1013.5 |
| 20260903002759 | 72 | 321 | 0.0 | 1.0 | 0.00 | 0.02 | 0.02 | 97 | 1013.5 |
| 20260903002258 | 72 | 258 | 0.0 | 1.0 | 0.00 | 0.02 | 0.02 | 97 | 1013.4 |
| 20260903001753 | 72 | 297 | 0.0 | 0.0 | 0.00 | 0.02 | 0.02 | 97 | 1013.2 |
| 20260903001248 | 73 | 287 | 2.0 | 4.0 | 0.00 | 0.02 | 0.02 | 97 | 1013.0 |
| 20260903000743 | 72 | 306 | 0.0 | 1.0 | 0.00 | 0.02 | 0.02 | 97 | 1013.0 |
| 20260903000242 | 72 | 24 | 0.0 | 1.0 | 0.00 | 0.02 | 0.02 | 97 | 1012.9 |
| 20260902235742 | 72 | 230 | 0.0 | 1.0 | 0.00 | 0.02 | 0.02 | 97 | 1013.1 |
| 20260902235237 | 72 | 347 | 0.0 | 1.0 | 0.00 | 0.02 | 0.02 | 97 | 1013.3 |
| 20260902234737 | 73 | 174 | 0.0 | 1.0 | 0.00 | 0.02 | 0.02 | 97 | 1013.3 |
| 20260902234235 | 73 | 251 | 0.0 | 1.0 | 0.00 | 0.02 | 0.02 | 97 | 1013.3 |
| 20260902233730 | 73 | 283 | 0.0 | 1.0 | 0.00 | 0.02 | 0.02 | 97 | 1013.3 |
| 20260902233229 | 73 | 293 | 0.0 | 2.0 | 0.00 | 0.02 | 0.02 | 97 | 1013.7 |
| 20260902232728 | 73 | 106 | 0.0 | 1.0 | 0.00 | 0.02 | 0.02 | 97 | 1013.6 |
| 20260902232223 | 73 | 302 | 0.0 | 1.0 | 0.00 | 0.02 | 0.02 | 97 | 1013.5 |
| 20260902231717 | 73 | 253 | 0.0 | 0.0 | 0.00 | 0.02 | 0.02 | 97 | 1013.6 |
| 20260902231218 | 73 | 304 | 0.0 | 1.0 | 0.00 | 0.02 | 0.02 | 97 | 1013.5 |
| 20260902230713 | 73 | 49 | 0.0 | 1.0 | 0.00 | 0.02 | 0.02 | 96 | 1013.4 |
| 20260902230212 | 73 | 55 | 0.0 | 1.0 | 0.00 | 0.02 | 0.02 | 96 | 1013.6 |
| 20260902225706 | 73 | 299 | 0.0 | 0.0 | 0.00 | 0.02 | 0.02 | 96 | 1013.9 |
| 20260902225201 | 73 | 351 | 0.0 | 0.0 | 0.00 | 0.02 | 0.02 | 96 | 1013.5 |
| 20260902224659 | 74 | 5 | 0.0 | 1.0 | 0.00 | 0.02 | 0.02 | 96 | 1013.4 |
| 20260902224155 | 73 | 292 | 0.0 | 1.0 | 0.00 | 0.02 | 0.02 | 96 | 1013.3 |
| 20260902223651 | 74 | 311 | 0.0 | 0.0 | 0.00 | 0.02 | 0.02 | 95 | 1013.3 |
| 20260902223150 | 74 | 2 | 0.0 | 0.0 | 0.00 | 0.02 | 0.02 | 95 | 1013.3 |
| 20260902222650 | 74 | 2 | 1.0 | 2.0 | 0.00 | 0.02 | 0.02 | 95 | 1013.4 |
| 20260902222148 | 74 | 245 | 0.0 | 2.0 | 0.00 | 0.02 | 0.02 | 95 | 1013.7 |
| 20260902221642 | 74 | 267 | 1.0 | 2.0 | 0.00 | 0.02 | 0.02 | 94 | 1013.5 |
| 20260902221132 | 75 | 260 | 1.0 | 3.0 | 0.00 | 0.02 | 0.02 | 94 | 1013.5 |
| 20260902220627 | 75 | 220 | 1.0 | 2.0 | 0.00 | 0.02 | 0.02 | 93 | 1013.5 |
| 20260902220122 | 74 | 294 | 2.0 | 4.0 | 0.00 | 0.02 | 0.02 | 94 | 1013.6 |
| 20260902215618 | 74 | 195 | 0.0 | 0.0 | 0.00 | 0.02 | 0.02 | 94 | 1013.2 |
| 20260902215113 | 74 | 8 | 0.0 | 0.0 | 0.00 | 0.02 | 0.02 | 94 | 1013.3 |
| 20260902214608 | 75 | 145 | 1.0 | 1.0 | 0.00 | 0.02 | 0.02 | 93 | 1013.6 |
| 20260902214107 | 75 | 174 | 0.0 | 1.0 | 0.00 | 0.02 | 0.02 | 92 | 1013.8 |
| 20260902213603 | 76 | 291 | 3.0 | 4.0 | 0.00 | 0.02 | 0.02 | 92 | 1014.3 |
| 20260902213102 | 75 | 281 | 3.0 | 4.0 | 0.00 | 0.02 | 0.02 | 92 | 1014.0 |
| 20260902212558 | 75 | 217 | 0.0 | 3.0 | 0.00 | 0.02 | 0.02 | 92 | 1014.0 |
| 20260902212054 | 75 | 261 | 0.0 | 1.0 | 0.00 | 0.02 | 0.02 | 92 | 1014.0 |
| 20260902211550 | 75 | 311 | 2.0 | 3.0 | 0.00 | 0.02 | 0.02 | 93 | 1014.1 |
| 20260902211049 | 74 | 252 | 0.0 | 0.0 | 0.00 | 0.02 | 0.02 | 94 | 1013.8 |
| 20260902210544 | 74 | 296 | 0.0 | 0.0 | 0.00 | 0.02 | 0.02 | 94 | 1014.0 |
| 20260902210043 | 74 | 4 | 0.0 | 2.0 | 0.00 | 0.02 | 0.02 | 94 | 1014.1 |
| 20260902205542 | 74 | 164 | 0.0 | 0.0 | 0.00 | 0.02 | 0.02 | 94 | 1014.3 |
| 20260902205038 | 73 | 205 | 0.0 | 1.0 | 0.00 | 0.02 | 0.02 | 95 | 1014.2 |
| 20260902204533 | 73 | 256 | 0.0 | 1.0 | 0.00 | 0.02 | 0.02 | 95 | 1014.7 |
| 20260902204028 | 73 | 311 | 0.0 | 1.0 | 0.00 | 0.02 | 0.02 | 95 | 1014.8 |
| 20260902203523 | 73 | 224 | 0.0 | 0.0 | 0.00 | 0.02 | 0.02 | 95 | 1014.9 |
| 20260902203022 | 74 | 12 | 0.0 | 1.0 | 0.00 | 0.02 | 0.02 | 95 | 1014.8 |
| 20260902202518 | 73 | 180 | 0.0 | 0.0 | 0.00 | 0.02 | 0.02 | 94 | 1014.7 |
| 20260902202014 | 74 | 318 | 0.0 | 1.0 | 0.00 | 0.02 | 0.02 | 94 | 1014.5 |
| 20260902201509 | 74 | 249 | 0.0 | 1.0 | 0.00 | 0.02 | 0.02 | 94 | 1014.6 |
| 20260902201004 | 74 | 269 | 0.0 | 1.0 | 0.00 | 0.02 | 0.02 | 94 | 1014.4 |
| 20260902200459 | 74 | 231 | 0.0 | 3.0 | 0.00 | 0.02 | 0.02 | 94 | 1014.5 |
| 20260902195954 | 74 | 243 | 0.0 | 1.0 | 0.00 | 0.02 | 0.02 | 95 | 1014.6 |
| 20260902195450 | 74 | 278 | 0.0 | 1.0 | 0.00 | 0.02 | 0.02 | 95 | 1014.6 |
| 20260902194944 | 74 | 232 | 0.0 | 1.0 | 0.00 | 0.02 | 0.02 | 95 | 1014.7 |
| 20260902194443 | 75 | 202 | 0.0 | 1.0 | 0.00 | 0.02 | 0.02 | 95 | 1014.8 |
| 20260902193938 | 75 | 18 | 0.0 | 1.0 | 0.00 | 0.02 | 0.02 | 95 | 1015.1 |
| 20260902193434 | 75 | 230 | 0.0 | 1.0 | 0.00 | 0.02 | 0.02 | 95 | 1014.9 |
| 20260902192932 | 75 | 246 | 0.0 | 2.0 | 0.00 | 0.02 | 0.02 | 95 | 1014.5 |
| 20260902192432 | 75 | 214 | 0.0 | 0.0 | 0.00 | 0.02 | 0.02 | 95 | 1014.6 |
| 20260902191931 | 75 | 350 | 0.0 | 1.0 | 0.00 | 0.02 | 0.02 | 95 | 1014.5 |
| 20260902191426 | 75 | 219 | 0.0 | 2.0 | 0.02 | 0.02 | 0.02 | 95 | 1014.9 |
| 20260902190922 | 75 | 142 | 0.0 | 1.0 | 0.05 | 0.02 | 0.02 | 93 | 1015.0 |
| 20260902190417 | 75 | 230 | 0.0 | 3.0 | 0.12 | 0.02 | 0.02 | 92 | 1015.0 |
| 20260902185912 | 77 | 243 | 2.0 | 3.0 | 0.07 | 0.01 | 0.01 | 87 | 1015.5 |
| 20260902185409 | 79 | 283 | 2.0 | 4.0 | 0.00 | 0.00 | 0.00 | 82 | 1016.1 |
| 20260902184903 | 82 | 342 | 5.0 | 6.0 | 0.00 | 0.00 | 0.00 | 78 | 1016.3 |
| 20260902184358 | 83 | 12 | 2.0 | 5.0 | 0.00 | 0.00 | 0.00 | 82 | 1016.2 |
| 20260902183854 | 84 | 29 | 2.0 | 3.0 | 0.00 | 0.00 | 0.00 | 79 | 1015.5 |
| 20260902183350 | 83 | 260 | 3.0 | 4.0 | 0.00 | 0.00 | 0.00 | 78 | 1015.6 |
| 20260902182845 | 84 | 336 | 2.0 | 2.0 | 0.00 | 0.00 | 0.00 | 80 | 1015.7 |
| 20260902182341 | 85 | 311 | 0.0 | 2.0 | 0.00 | 0.00 | 0.00 | 79 | 1015.1 |
| 20260902181832 | 85 | 126 | 0.0 | 6.0 | 0.00 | 0.00 | 0.00 | 77 | 1015.4 |
| 20260902181327 | 85 | 66 | 2.0 | 2.0 | 0.00 | 0.00 | 0.00 | 77 | 1015.5 |
| 20260902180821 | 86 | 51 | 0.0 | 4.0 | 0.00 | 0.00 | 0.00 | 77 | 1015.5 |
| 20260902180317 | 86 | 297 | 0.0 | 4.0 | 0.00 | 0.00 | 0.00 | 77 | 1015.1 |
| 20260902175812 | 85 | 286 | 3.0 | 4.0 | 0.00 | 0.00 | 0.00 | 76 | 1015.0 |
| 20260902175308 | 85 | 152 | 0.0 | 1.0 | 0.00 | 0.00 | 0.00 | 78 | 1015.2 |
| 20260902174803 | 86 | 301 | 0.0 | 3.0 | 0.00 | 0.00 | 0.00 | 77 | 1015.0 |
| 20260902174259 | 85 | 221 | 0.0 | 3.0 | 0.00 | 0.00 | 0.00 | 78 | 1015.1 |
| 20260902173755 | 83 | 215 | 0.0 | 2.0 | 0.00 | 0.00 | 0.00 | 78 | 1015.0 |
| 20260902173249 | 85 | 260 | 3.0 | 4.0 | 0.00 | 0.00 | 0.00 | 76 | 1014.9 |
| 20260902172743 | 85 | 342 | 1.0 | 2.0 | 0.00 | 0.00 | 0.00 | 79 | 1014.9 |
| 20260902172238 | 83 | 267 | 2.0 | 3.0 | 0.00 | 0.00 | 0.00 | 77 | 1014.9 |
| 20260902171733 | 82 | 240 | 1.0 | 2.0 | 0.00 | 0.00 | 0.00 | 79 | 1015.0 |
| 20260902171228 | 85 | 155 | 0.0 | 2.0 | 0.00 | 0.00 | 0.00 | 78 | 1014.8 |
| 20260902170724 | 83 | 217 | 0.0 | 2.0 | 0.00 | 0.00 | 0.00 | 79 | 1014.9 |
| 20260902170219 | 83 | 237 | 2.0 | 3.0 | 0.00 | 0.00 | 0.00 | 79 | 1014.8 |
| 20260902165714 | 83 | 217 | 0.0 | 2.0 | 0.00 | 0.00 | 0.00 | 80 | 1014.7 |
| 20260902165208 | 84 | 359 | 0.0 | 2.0 | 0.00 | 0.00 | 0.00 | 79 | 1014.6 |
| 20260902164703 | 84 | 196 | 0.0 | 2.0 | 0.00 | 0.00 | 0.00 | 80 | 1014.4 |
| 20260902164203 | 83 | 249 | 2.0 | 2.0 | 0.00 | 0.00 | 0.00 | 80 | 1014.7 |
| 20260902163657 | 83 | 161 | 0.0 | 4.0 | 0.00 | 0.00 | 0.00 | 79 | 1014.7 |
| 20260902163152 | 84 | 227 | 0.0 | 2.0 | 0.00 | 0.00 | 0.00 | 80 | 1014.6 |
| 20260902162650 | 84 | 274 | 0.0 | 2.0 | 0.00 | 0.00 | 0.00 | 79 | 1014.6 |
| 20260902162145 | 85 | 284 | 1.0 | 3.0 | 0.00 | 0.00 | 0.00 | 78 | 1014.9 |
| 20260902161640 | 84 | 290 | 0.0 | 1.0 | 0.00 | 0.00 | 0.00 | 78 | 1014.9 |
| 20260902161136 | 84 | 338 | 2.0 | 2.0 | 0.00 | 0.00 | 0.00 | 80 | 1014.8 |
| 20260902160632 | 83 | 162 | 0.0 | 3.0 | 0.00 | 0.00 | 0.00 | 79 | 1014.8 |
| 20260902160127 | 83 | 3 | 0.0 | 2.0 | 0.00 | 0.00 | 0.00 | 80 | 1014.7 |
| 20260902155625 | 83 | 154 | 0.0 | 2.0 | 0.00 | 0.00 | 0.00 | 80 | 1014.9 |
| 20260902155124 | 83 | 149 | 0.0 | 2.0 | 0.00 | 0.00 | 0.00 | 79 | 1014.7 |
| 20260902154619 | 83 | 87 | 0.0 | 1.0 | 0.00 | 0.00 | 0.00 | 80 | 1014.7 |
| 20260902154114 | 83 | 288 | 0.0 | 2.0 | 0.00 | 0.00 | 0.00 | 81 | 1014.8 |
| 20260902153613 | 83 | 218 | 0.0 | 2.0 | 0.00 | 0.00 | 0.00 | 81 | 1014.7 |
| 20260902153108 | 83 | 359 | 0.0 | 2.0 | 0.00 | 0.00 | 0.00 | 82 | 1014.9 |
| 20260902152605 | 82 | 347 | 0.0 | 4.0 | 0.00 | 0.00 | 0.00 | 82 | 1015.0 |
| 20260902152100 | 82 | 248 | 0.0 | 2.0 | 0.00 | 0.00 | 0.00 | 82 | 1014.8 |
| 20260902151555 | 81 | 269 | 0.0 | 3.0 | 0.00 | 0.00 | 0.00 | 83 | 1014.7 |
| 20260902151054 | 81 | 206 | 0.0 | 1.0 | 0.00 | 0.00 | 0.00 | 83 | 1014.9 |
| 20260902150550 | 81 | 81 | 1.0 | 3.0 | 0.00 | 0.00 | 0.00 | 83 | 1014.8 |
| 20260902150045 | 81 | 225 | 2.0 | 2.0 | 0.00 | 0.00 | 0.00 | 83 | 1015.0 |
| 20260902145535 | 81 | 157 | 2.0 | 2.0 | 0.00 | 0.00 | 0.00 | 84 | 1014.8 |
| 20260902145034 | 80 | 352 | 0.0 | 1.0 | 0.00 | 0.00 | 0.00 | 85 | 1014.9 |
| 20260902144532 | 81 | 309 | 0.0 | 2.0 | 0.00 | 0.00 | 0.00 | 84 | 1014.7 |
| 20260902144031 | 81 | 320 | 0.0 | 1.0 | 0.00 | 0.00 | 0.00 | 85 | 1014.8 |
| 20260902143526 | 82 | 304 | 0.0 | 1.0 | 0.00 | 0.00 | 0.00 | 84 | 1014.8 |
| 20260902143022 | 81 | 0 | 0.0 | 2.0 | 0.00 | 0.00 | 0.00 | 85 | 1014.8 |
| 20260902142517 | 81 | 278 | 0.0 | 2.0 | 0.00 | 0.00 | 0.00 | 84 | 1014.7 |
| 20260902142012 | 81 | 128 | 0.0 | 2.0 | 0.00 | 0.00 | 0.00 | 83 | 1014.6 |
| 20260902141507 | 82 | 250 | 0.0 | 2.0 | 0.00 | 0.00 | 0.00 | 82 | 1014.6 |
| 20260902141002 | 80 | 164 | 1.0 | 2.0 | 0.00 | 0.00 | 0.00 | 82 | 1014.9 |
| 20260902140457 | 80 | 255 | 0.0 | 1.0 | 0.00 | 0.00 | 0.00 | 82 | 1014.6 |
| 20260902135956 | 80 | 150 | 0.0 | 1.0 | 0.00 | 0.00 | 0.00 | 83 | 1014.7 |
| 20260902135452 | 80 | 138 | 1.0 | 1.0 | 0.00 | 0.00 | 0.00 | 83 | 1014.7 |
| 20260902134951 | 80 | 235 | 0.0 | 2.0 | 0.00 | 0.00 | 0.00 | 84 | 1014.3 |
| 20260902134447 | 79 | 204 | 0.0 | 2.0 | 0.00 | 0.00 | 0.00 | 85 | 1014.3 |
| 20260902133942 | 79 | 167 | 1.0 | 2.0 | 0.00 | 0.00 | 0.00 | 88 | 1014.4 |
| 20260902133437 | 80 | 173 | 0.0 | 3.0 | 0.00 | 0.00 | 0.00 | 89 | 1014.3 |
| 20260902132932 | 80 | 256 | 0.0 | 2.0 | 0.00 | 0.00 | 0.00 | 89 | 1014.2 |
| 20260902132427 | 80 | 164 | 0.0 | 3.0 | 0.00 | 0.00 | 0.00 | 90 | 1014.0 |
| 20260902131922 | 80 | 253 | 0.0 | 4.0 | 0.00 | 0.00 | 0.00 | 89 | 1014.0 |
| 20260902131419 | 79 | 323 | 3.0 | 4.0 | 0.00 | 0.00 | 0.00 | 90 | 1013.9 |
| 20260902130918 | 79 | 259 | 1.0 | 2.0 | 0.00 | 0.00 | 0.00 | 90 | 1014.0 |
| 20260902130414 | 79 | 236 | 1.0 | 2.0 | 0.00 | 0.00 | 0.00 | 90 | 1013.8 |
| 20260902125908 | 79 | 272 | 1.0 | 3.0 | 0.00 | 0.00 | 0.00 | 90 | 1013.9 |
| 20260902125405 | 79 | 242 | 2.0 | 3.0 | 0.00 | 0.00 | 0.00 | 90 | 1014.1 |
| 20260902124901 | 79 | 301 | 0.0 | 3.0 | 0.00 | 0.00 | 0.00 | 91 | 1014.0 |
| 20260902124356 | 79 | 303 | 0.0 | 2.0 | 0.00 | 0.00 | 0.00 | 91 | 1014.2 |
| 20260902123851 | 79 | 297 | 3.0 | 4.0 | 0.00 | 0.00 | 0.00 | 91 | 1014.0 |
| 20260902123348 | 78 | 318 | 2.0 | 3.0 | 0.00 | 0.00 | 0.00 | 92 | 1014.2 |
| 20260902122846 | 78 | 308 | 2.0 | 3.0 | 0.00 | 0.00 | 0.00 | 92 | 1014.0 |
| 20260902122342 | 78 | 316 | 2.0 | 3.0 | 0.00 | 0.00 | 0.00 | 93 | 1013.8 |
| 20260902121841 | 77 | 328 | 2.0 | 3.0 | 0.00 | 0.00 | 0.00 | 96 | 1013.8 |
| 20260902121337 | 77 | 319 | 1.0 | 2.0 | 0.00 | 0.00 | 0.00 | 97 | 1014.0 |
| 20260902120832 | 77 | 237 | 0.0 | 2.0 | 0.00 | 0.00 | 0.00 | 97 | 1013.7 |
| 20260902120328 | 77 | 187 | 0.0 | 2.0 | 0.00 | 0.00 | 0.00 | 98 | 1013.8 |
| 20260902115822 | 76 | 266 | 1.0 | 2.0 | 0.00 | 0.00 | 0.00 | 98 | 1013.8 |
| 20260902115319 | 76 | 307 | 0.0 | 2.0 | 0.00 | 0.00 | 0.00 | 98 | 1013.7 |
| 20260902114815 | 76 | 290 | 0.0 | 2.0 | 0.00 | 0.00 | 0.00 | 98 | 1013.8 |
| 20260902114311 | 76 | 264 | 1.0 | 2.0 | 0.00 | 0.00 | 0.00 | 99 | 1013.6 |
| 20260902113805 | 76 | 0 | 0.0 | 1.0 | 0.00 | 0.00 | 0.00 | 99 | 1013.5 |
| 20260902113301 | 76 | 279 | 0.0 | 2.0 | 0.00 | 0.00 | 0.00 | 99 | 1013.7 |
| 20260902112801 | 75 | 164 | 0.0 | 1.0 | 0.00 | 0.00 | 0.00 | 99 | 1013.7 |
| 20260902112257 | 75 | 332 | 0.0 | 2.0 | 0.00 | 0.00 | 0.00 | 99 | 1013.6 |
| 20260902111752 | 75 | 333 | 0.0 | 2.0 | 0.00 | 0.00 | 0.00 | 99 | 1013.6 |
| 20260902111249 | 75 | 276 | 1.0 | 2.0 | 0.00 | 0.00 | 0.00 | 99 | 1013.6 |
| 20260902110744 | 75 | 267 | 1.0 | 2.0 | 0.00 | 0.00 | 0.00 | 99 | 1013.4 |
| 20260902110240 | 75 | 237 | 0.0 | 2.0 | 0.00 | 0.00 | 0.00 | 99 | 1013.5 |
| 20260902105739 | 75 | 231 | 0.0 | 2.0 | 0.00 | 0.00 | 0.00 | 99 | 1013.6 |
| 20260902105234 | 75 | 189 | 0.0 | 1.0 | 0.00 | 0.00 | 0.00 | 98 | 1013.3 |
| 20260902104730 | 75 | 336 | 0.0 | 1.0 | 0.00 | 0.00 | 0.00 | 98 | 1013.2 |
| 20260902104226 | 75 | 4 | 0.0 | 0.0 | 0.00 | 0.00 | 0.00 | 98 | 1013.2 |
| 20260902103725 | 75 | 249 | 0.0 | 2.0 | 0.00 | 0.00 | 0.00 | 99 | 1013.4 |
| 20260902103225 | 75 | 300 | 1.0 | 1.0 | 0.00 | 0.00 | 0.00 | 99 | 1013.3 |
| 20260902102720 | 75 | 354 | 0.0 | 2.0 | 0.00 | 0.00 | 0.00 | 98 | 1013.3 |
| 20260902102218 | 75 | 255 | 0.0 | 2.0 | 0.00 | 0.00 | 0.00 | 98 | 1013.2 |
| 20260902101713 | 75 | 222 | 1.0 | 1.0 | 0.00 | 0.00 | 0.00 | 98 | 1013.1 |
| 20260902101208 | 75 | 198 | 0.0 | 1.0 | 0.00 | 0.00 | 0.00 | 98 | 1013.1 |
| 20260902100702 | 75 | 310 | 0.0 | 2.0 | 0.00 | 0.00 | 0.00 | 98 | 1012.9 |
| 20260902100156 | 75 | 271 | 0.0 | 1.0 | 0.00 | 0.00 | 0.00 | 98 | 1012.9 |
| 20260902095655 | 75 | 284 | 0.0 | 0.0 | 0.00 | 0.00 | 0.00 | 98 | 1013.1 |
| 20260902095149 | 75 | 304 | 0.0 | 1.0 | 0.00 | 0.00 | 0.00 | 98 | 1013.1 |
| 20260902094645 | 75 | 269 | 0.0 | 2.0 | 0.00 | 0.00 | 0.00 | 98 | 1013.1 |
| 20260902094142 | 75 | 331 | 0.0 | 1.0 | 0.00 | 0.00 | 0.00 | 98 | 1012.8 |
| 20260902093641 | 75 | 306 | 0.0 | 1.0 | 0.00 | 0.00 | 0.00 | 98 | 1012.9 |
| 20260902093136 | 75 | 235 | 0.0 | 1.0 | 0.00 | 0.00 | 0.00 | 98 | 1012.9 |
| 20260902092636 | 75 | 314 | 0.0 | 2.0 | 0.00 | 0.00 | 0.00 | 98 | 1012.8 |
| 20260902092131 | 75 | 297 | 0.0 | 1.0 | 0.00 | 0.00 | 0.00 | 98 | 1012.8 |
| 20260902091626 | 75 | 286 | 0.0 | 2.0 | 0.00 | 0.00 | 0.00 | 98 | 1012.8 |
| 20260902091122 | 75 | 245 | 1.0 | 2.0 | 0.00 | 0.00 | 0.00 | 97 | 1012.8 |
| 20260902090618 | 75 | 325 | 0.0 | 1.0 | 0.00 | 0.00 | 0.00 | 97 | 1012.9 |
| 20260902090117 | 75 | 269 | 0.0 | 2.0 | 0.00 | 0.00 | 0.00 | 97 | 1012.9 |
| 20260902085612 | 75 | 262 | 0.0 | 1.0 | 0.00 | 0.00 | 0.00 | 97 | 1012.8 |
| 20260902085107 | 75 | 275 | 0.0 | 2.0 | 0.00 | 0.00 | 0.00 | 97 | 1012.9 |
| 20260902084603 | 76 | 234 | 0.0 | 1.0 | 0.00 | 0.00 | 0.00 | 97 | 1013.1 |
| 20260902084058 | 76 | 331 | 1.0 | 1.0 | 0.00 | 0.00 | 0.00 | 97 | 1013.1 |
| 20260902083553 | 76 | 205 | 0.0 | 1.0 | 0.00 | 0.00 | 0.00 | 97 | 1012.8 |
| 20260902083048 | 76 | 295 | 0.0 | 1.0 | 0.00 | 0.00 | 0.00 | 97 | 1012.8 |
| 20260902082544 | 76 | 190 | 0.0 | 1.0 | 0.00 | 0.00 | 0.00 | 97 | 1012.7 |
| 20260902082040 | 76 | 329 | 0.0 | 2.0 | 0.00 | 0.00 | 0.00 | 97 | 1012.7 |
| 20260902081536 | 76 | 348 | 0.0 | 2.0 | 0.00 | 0.00 | 0.00 | 96 | 1012.6 |
| 20260902081036 | 76 | 56 | 0.0 | 1.0 | 0.00 | 0.00 | 0.00 | 96 | 1012.3 |
| 20260902080532 | 76 | 338 | 0.0 | 2.0 | 0.00 | 0.00 | 0.00 | 96 | 1012.6 |
| 20260902080028 | 76 | 286 | 0.0 | 2.0 | 0.00 | 0.00 | 0.00 | 96 | 1012.8 |
| 20260902075527 | 76 | 312 | 0.0 | 1.0 | 0.00 | 0.00 | 0.00 | 96 | 1012.5 |
| 20260902075024 | 76 | 202 | 0.0 | 2.0 | 0.00 | 0.00 | 0.00 | 96 | 1012.5 |
| 20260902074518 | 76 | 209 | 0.0 | 3.0 | 0.00 | 0.00 | 0.00 | 96 | 1012.7 |
| 20260902074013 | 76 | 261 | 0.0 | 1.0 | 0.00 | 0.00 | 0.00 | 96 | 1012.5 |
| 20260902073509 | 76 | 260 | 0.0 | 2.0 | 0.00 | 0.00 | 0.00 | 96 | 1012.5 |
| 20260902073006 | 76 | 334 | 0.0 | 2.0 | 0.00 | 0.00 | 0.00 | 96 | 1012.7 |
| 20260902072500 | 76 | 205 | 0.0 | 2.0 | 0.00 | 0.00 | 0.00 | 97 | 1012.5 |
| 20260902071957 | 76 | 269 | 1.0 | 3.0 | 0.00 | 0.00 | 0.00 | 97 | 1012.7 |
| 20260902071456 | 75 | 69 | 0.0 | 1.0 | 0.00 | 0.00 | 0.00 | 97 | 1012.3 |
| 20260902070953 | 75 | 264 | 0.0 | 1.0 | 0.00 | 0.00 | 0.00 | 97 | 1012.6 |
| 20260902070448 | 75 | 269 | 0.0 | 2.0 | 0.00 | 0.00 | 0.00 | 96 | 1012.4 |
| 20260902065947 | 75 | 306 | 0.0 | 1.0 | 0.00 | 0.00 | 0.00 | 96 | 1012.4 |
| 20260902065442 | 76 | 205 | 0.0 | 1.0 | 0.00 | 0.00 | 0.00 | 96 | 1012.4 |
| 20260902064937 | 76 | 202 | 0.0 | 2.0 | 0.00 | 0.00 | 0.00 | 96 | 1012.4 |
| 20260902064432 | 76 | 260 | 0.0 | 2.0 | 0.00 | 0.00 | 0.00 | 96 | 1012.3 |
| 20260902063928 | 76 | 147 | 0.0 | 1.0 | 0.00 | 0.00 | 0.00 | 96 | 1012.3 |
| 20260902063428 | 76 | 154 | 0.0 | 2.0 | 0.00 | 0.00 | 0.00 | 96 | 1012.5 |
| 20260902062923 | 76 | 257 | 2.0 | 2.0 | 0.00 | 0.00 | 0.00 | 96 | 1012.6 |
| 20260902062422 | 76 | 208 | 0.0 | 1.0 | 0.00 | 0.00 | 0.00 | 96 | 1012.5 |
| 20260902061917 | 76 | 246 | 0.0 | 2.0 | 0.00 | 0.00 | 0.00 | 96 | 1012.5 |
| 20260902061413 | 76 | 300 | 1.0 | 2.0 | 0.00 | 0.00 | 0.00 | 96 | 1012.5 |
| 20260902060909 | 76 | 259 | 1.0 | 1.0 | 0.00 | 0.00 | 0.00 | 95 | 1012.5 |
| 20260902060404 | 76 | 227 | 0.0 | 1.0 | 0.00 | 0.00 | 0.00 | 95 | 1012.4 |
| 20260902055900 | 77 | 269 | 0.0 | 1.0 | 0.00 | 0.00 | 0.00 | 95 | 1012.3 |
| 20260902055356 | 77 | 262 | 0.0 | 2.0 | 0.00 | 0.00 | 0.00 | 95 | 1012.4 |
| 20260902054851 | 77 | 244 | 1.0 | 1.0 | 0.00 | 0.00 | 0.00 | 95 | 1012.3 |
| 20260902054346 | 77 | 281 | 1.0 | 2.0 | 0.00 | 0.00 | 0.00 | 95 | 1012.2 |
| 20260902053841 | 77 | 258 | 2.0 | 2.0 | 0.00 | 0.00 | 0.00 | 95 | 1012.3 |
| 20260902053336 | 77 | 296 | 1.0 | 2.0 | 0.00 | 0.00 | 0.00 | 95 | 1012.4 |
| 20260902052835 | 77 | 324 | 0.0 | 2.0 | 0.00 | 0.00 | 0.00 | 95 | 1012.4 |
| 20260902052331 | 77 | 280 | 0.0 | 2.0 | 0.00 | 0.00 | 0.00 | 95 | 1012.3 |
| 20260902051825 | 77 | 199 | 0.0 | 0.0 | 0.00 | 0.00 | 0.00 | 95 | 1012.1 |
| 20260902051320 | 77 | 283 | 1.0 | 2.0 | 0.00 | 0.00 | 0.00 | 95 | 1012.1 |
| 20260902050814 | 77 | 283 | 1.0 | 3.0 | 0.00 | 0.00 | 0.00 | 94 | 1012.2 |
| 20260902050314 | 77 | 278 | 2.0 | 2.0 | 0.00 | 0.00 | 0.00 | 94 | 1012.3 |
| 20260902045809 | 77 | 250 | 0.0 | 1.0 | 0.00 | 0.00 | 0.00 | 94 | 1012.2 |
| 20260902045306 | 78 | 66 | 0.0 | 0.0 | 0.00 | 0.00 | 0.00 | 93 | 1012.2 |
| 20260902044801 | 78 | 216 | 0.0 | 1.0 | 0.00 | 0.00 | 0.00 | 92 | 1012.2 |
| 20260902044256 | 78 | 267 | 1.0 | 2.0 | 0.00 | 0.00 | 0.00 | 92 | 1012.4 |
| 20260902043750 | 78 | 279 | 2.0 | 4.0 | 0.00 | 0.00 | 0.00 | 92 | 1012.4 |
| 20260902043247 | 78 | 285 | 3.0 | 3.0 | 0.00 | 0.00 | 0.00 | 94 | 1012.0 |
| 20260902042745 | 78 | 287 | 1.0 | 2.0 | 0.00 | 0.00 | 0.00 | 93 | 1012.4 |
| 20260902042240 | 78 | 266 | 1.0 | 1.0 | 0.00 | 0.00 | 0.00 | 92 | 1012.3 |
| 20260902041736 | 78 | 282 | 2.0 | 3.0 | 0.00 | 0.00 | 0.00 | 93 | 1012.4 |
| 20260902041236 | 78 | 293 | 1.0 | 2.0 | 0.00 | 0.00 | 0.00 | 94 | 1012.6 |
| 20260902040735 | 78 | 278 | 1.0 | 2.0 | 0.00 | 0.00 | 0.00 | 94 | 1012.4 |
| 20260902040231 | 78 | 292 | 1.0 | 2.0 | 0.00 | 0.00 | 0.00 | 94 | 1012.3 |
| 20260902035729 | 78 | 299 | 1.0 | 2.0 | 0.00 | 0.00 | 0.00 | 94 | 1012.3 |
| 20260902035225 | 78 | 252 | 1.0 | 2.0 | 0.00 | 0.00 | 0.00 | 93 | 1011.8 |
| 20260902034723 | 78 | 258 | 1.0 | 2.0 | 0.00 | 0.00 | 0.00 | 93 | 1011.7 |
| 20260902034218 | 78 | 273 | 2.0 | 3.0 | 0.00 | 0.00 | 0.00 | 93 | 1011.7 |
| 20260902033717 | 78 | 263 | 1.0 | 4.0 | 0.00 | 0.00 | 0.00 | 93 | 1011.7 |